Home   Weather   Bridgeport   Past weeks
Flag for USA

Past Weather in Bridgeport, Connecticut, USA — Yesterday and Last 2 Weeks

Now
63 °F

Mostly cloudy.


Feels Like: 63 °F
Forecast: 65 / 56 °F
Wind: 17 mph from Southwest

Location: Sikorsky Memorial Airport

Current Time: Apr 19, 2019 at 1:13:18 pm

Latest Report: Apr 19, 2019 at 11:52 am


Visibility: 10 mi

Pressure: 29.83 "Hg

Humidity: 78%

Dew Point: 56 °F

Location of BridgeportLocation

Past Weather in Bridgeport — Graph

°F

Bridgeport Temperature Yesterday

Maximum temperature yesterday: 55 °F (at 9:52 pm)
Minimum temperature yesterday: 47 °F (at 12:52 am)
Average temperature yesterday: 49 °F

High & Low Weather Summary for the Past Weeks

 TemperatureHumidityPressure
High67 °F (Apr 13, 3:54 pm)100% (Apr 8, 7:52 am)30.53 "Hg (Apr 8, 7:52 am)
Low36 °F (Apr 5, 4:52 am)13% (Apr 4, 6:52 pm)29.31 "Hg (Apr 15, 8:52 am)
Average50 °F73%29.98 "Hg
* Reported Apr 4 11:52 am — Apr 19 11:52 am, Bridgeport. Weather by CustomWeather, © 2019

Note: Actual official high and low records may vary slightly from our data, if they occured in-between our weather recording intervals... More about our weather records

Advertising

Bridgeport Weather History for the Previous 24 Hours

Scroll right to see more
 ConditionsComfort  
Time TempWeatherWind HumidityBarometerVisibility
11:52 am
Fri, Apr 19
63 °FMostly cloudy.17 mph78%29.83 "Hg10 mi
10:52 am62 °FPartly sunny.17 mph80%29.84 "Hg10 mi
9:52 am59 °FOvercast.16 mph84%29.84 "Hg10 mi
8:52 am59 °FScattered clouds.16 mph87%29.83 "Hg10 mi
7:52 am57 °FPassing clouds.8 mph90%29.84 "Hg8 mi
6:52 am54 °FSunny.6 mph93%29.84 "Hg8 mi
5:52 am53 °FClear.6 mph93%29.84 "Hg9 mi
4:52 am52 °FPassing clouds.5 mph93%29.84 "Hg8 mi
3:52 am54 °FClear.5 mph90%29.85 "Hg10 mi
2:52 am56 °FClear.13 mph87%29.85 "Hg10 mi
1:52 am56 °FClear.12 mph87%29.86 "Hg10 mi
12:52 am55 °FClear.10 mph90%29.88 "Hg10 mi
11:52 pm
Thu, Apr 18
52 °FClear.5 mph93%29.89 "Hg10 mi
10:52 pm54 °FClear.5 mph86%29.91 "Hg10 mi
9:52 pm55 °FClear.5 mph83%29.91 "Hg10 mi
8:52 pm50 °FClear.6 mph93%29.92 "Hg10 mi
7:52 pm51 °FPassing clouds.7 mph92%29.93 "Hg7 mi
6:52 pm51 °FFog.12 mph89%29.93 "Hg6 mi
5:52 pm51 °FLow clouds.15 mph89%29.95 "Hg8 mi
5:38 pm51 °FLow clouds.16 mph89%29.96 "Hg8 mi
4:52 pm50 °FOvercast.17 mph89%29.98 "Hg10 mi
3:52 pm49 °FOvercast.15 mph90%30.03 "Hg10 mi
2:52 pm48 °FLight rain. Overcast.15 mph89%30.07 "Hg9 mi
1:52 pm47 °FLight rain. Overcast.16 mph90%30.09 "Hg7 mi
Weather by CustomWeather, © 2019

See weather overview